Castlegar, British Columbia

5:15 AM PDT on July 23, 2017 (GMT -0700)
Castlegar

Weather History for CYCG - October, 2013

Change the Weather History Date:

Thursday, October 3, 2013

  Actual Average Record
Temperature  
Mean Temperature 54 °F -  
Max Temperature 65 °F 51 °F 75 °F (2011)
Min Temperature 42 °F 36 °F 26 °F (1999)
Degree Days  
Heating Degree Days 12    
Growing Degree Days 4 (Base 50)    
Moisture  
Dew Point 38 °F    
Average Humidity 61    
Maximum Humidity 79    
Minimum Humidity 41    
Precipitation  
Precipitation 0.00 in 0.08 in - ()
Sea Level Pressure  
Sea Level Pressure 30.26 in    
Wind  
Wind Speed 8 mph ()    
Max Wind Speed 14 mph    
Max Gust Speed 18 mph    
Visibility 15.0 miles    
Events      
Averages and records for this station are not official NWS values.
T = Trace of Precipitation, MM = Missing Value Source: Averaged Metar Reports

Daily Weather History Graph

Daily Weather History Graph

Search for Another Location

Airport or City:

Trip Planner

Search our weather history database for the weather conditions in past years. The results will help you decide how hot, cold, wet, or windy it might be!

Date:

Astronomy

Oct. 03, 2013 Rise Set
Actual Time 6:53 AM PDT 6:24 PM PDT
Civil Twilight 6:21 AM PDT 6:55 PM PDT
Nautical Twilight 5:45 AM PDT 7:32 PM PDT
Astronomical Twilight 5:07 AM PDT 8:10 PM PDT
Moon 5:27 AM PDT (10/3) 5:36 PM PDT (10/3)
Length of Visible Light 12h 33m
Length of Day
11h 30m
Waning Crescent, 2% of the Moon is Illuminated
Oct 3
Waning Crescent
Oct 4
New
Oct 11
First Quarter
Oct 18
Full
Oct 26
Last Quarter

Hourly Weather History & Observations

Time (PDT) Temp. Windchill Dew Point Humidity Pressure Visibility Wind Dir Wind Speed Gust Speed Precip Events Conditions
5:00 AM 58 °F - 49 °F 65% 29.95 in - NW 8.1 mph - -  
6:00 AM 42.8 °F 36.6 °F 35.6 °F 76% 30.25 in 15.0 mi NNE 11.5 mph 17.3 mph N/A   Mostly Cloudy
7:00 AM 42.8 °F 36.2 °F 35.6 °F 76% 30.28 in 15.0 mi ENE 12.7 mph - N/A   Mostly Cloudy
8:00 AM 42.8 °F 37.5 °F 35.6 °F 76% 30.31 in 15.0 mi NNE 9.2 mph - N/A   Mostly Cloudy
9:00 AM 46.4 °F 40.7 °F 35.6 °F 66% 30.33 in 15.0 mi NE 12.7 mph - N/A   Mostly Cloudy
10:00 AM 46.4 °F 44.3 °F 35.6 °F 66% 30.35 in 15.0 mi ENE 4.6 mph - N/A   Mostly Cloudy
11:00 AM 63 °F - 47 °F 46% 29.94 in - West 12.7 mph - -  
11:00 AM 48.2 °F - 35.6 °F 62% 30.35 in 15.0 mi North 8.1 mph - N/A   Scattered Clouds
12:00 PM 51.8 °F - 37.4 °F 58% 30.35 in 15.0 mi NNW 11.5 mph - N/A   Partly Cloudy
1:00 PM 53.6 °F - 37.4 °F 54% 30.34 in 15.0 mi NNW 9.2 mph 18.4 mph N/A   Scattered Clouds
2:00 PM 55.4 °F - 35.6 °F 47% 30.32 in 15.0 mi NNW 13.8 mph - N/A   Partly Cloudy
3:00 PM 57.2 °F - 35.6 °F 44% 30.32 in 15.0 mi North 8.1 mph - N/A   Partly Cloudy
4:00 PM 57.2 °F - 33.8 °F 41% 30.32 in 15.0 mi NNW 10.4 mph - N/A   Partly Cloudy
5:00 PM 58 °F - 50 °F 68% 29.99 in - West 11.5 mph - -  
5:00 PM 55.4 °F - 32.0 °F 41% 30.34 in 15.0 mi North 11.5 mph - N/A   Partly Cloudy
6:00 PM 51.8 °F - 32.0 °F 47% 30.36 in 15.0 mi NNE 2.3 mph - N/A   Partly Cloudy
7:00 PM 42.8 °F - 33.8 °F 70% 30.39 in 15.0 mi Variable 2.3 mph - N/A   Clear
8:00 PM 44.6 °F 41.4 °F 35.6 °F 71% 30.41 in 15.0 mi NNW 5.8 mph - N/A   Clear
11:00 PM 52 °F - 47 °F 79% 30.01 in - West 5.8 mph - -